[[{"header":{"parameterUnit":"m.s-1","parameterCategory":2,"la1":30.2992,"la2":30.254,"lo1":-89.0895,"lo2":-89.0443,"dy":0.0025,"dx":0.0025,"nx":19,"ny":19,"refTime":"2026-04-02T21:00:00:Z","depth":"0","parameterNumber":2,"parameterNumberName":"U-component_of_CURRENTS"},"data":[0,0,0,-0.2376,-0.2378,-0.2489,-0.249,-0.2511,-0.2511,0,0,0,0,0,0,0,0,0,0,0,-0.2324,-0.2324,-0.2375,-0.2379,-0.2489,-0.249,-0.2511,-0.2511,0,0,0,0,0,0,0,0,0,0,0,-0.2323,-0.2324,-0.2325,-0.2379,-0.2489,-0.249,-0.2511,-0.2454,0,0,0,0,0,0,0,0,0,0,-0.236,-0.2326,-0.2324,-0.2325,-0.238,-0.2489,-0.249,-0.2453,-0.2458,-0.2431,0,-0.2452,0,-0.2492,-0.2511,-0.2511,0,0,0,-0.2366,-0.2322,-0.2365,-0.2325,-0.2381,-0.2489,-0.2436,-0.2456,-0.2462,-0.2437,-0.2453,-0.2456,-0.2492,-0.2511,-0.2511,-0.2555,-0.2556,0,0,-0.236,-0.2328,-0.2362,-0.2369,-0.2414,-0.2432,-0.2439,-0.2461,-0.2457,-0.2454,-0.2457,-0.2492,-0.2511,-0.2511,-0.2555,-0.2555,0,0,0,-0.2351,-0.2323,-0.2368,-0.2366,-0.2402,-0.2436,-0.2444,-0.2456,-0.2475,-0.2458,-0.2493,-0.2511,-0.2511,-0.2554,-0.2555,-0.2616,0,0,0,-0.2347,-0.232,-0.2365,-0.2345,-0.2402,-0.2446,-0.2438,-0.2473,-0.2478,-0.2492,-0.2511,-0.2511,-0.2554,-0.2555,-0.2613,-0.2643,0,0,0,-0.2318,-0.2317,-0.2334,-0.2343,-0.2401,-0.2447,-0.2467,-0.2476,-0.2499,-0.2511,-0.2511,-0.2553,-0.2554,-0.261,-0.2638,-0.2704,0,0,0,-0.2274,-0.2319,-0.2333,-0.2391,-0.24,-0.248,-0.2468,-0.2517,-0.2532,-0.2511,-0.2554,-0.2555,-0.2609,-0.2636,-0.27,-0.2599,-0.2606,0,0,-0.2314,-0.2323,-0.2361,-0.2377,-0.2452,-0.2463,-0.254,-0.2554,-0.2538,-0.2534,-0.2536,-0.2614,-0.2638,-0.2703,-0.2668,-0.2673,0,0,0,-0.2363,-0.2377,-0.2406,-0.2449,-0.2506,-0.2555,-0.2575,-0.2599,-0.2624,-0.2556,-0.2621,-0.2634,-0.2674,-0.2606,-0.261,-0.2538,-0.256,-0.256,-0.256,-0.233,-0.2383,-0.2428,-0.2488,-0.2537,-0.2616,-0.2671,-0.2698,-0.2662,-0.2693,-0.2689,-0.2787,-0.2714,-0.2716,-0.2644,-0.2693,-0.2693,-0.2693,-0.2694,-0.2346,-0.2363,-0.2424,-0.2482,-0.255,-0.2601,-0.2726,-0.2751,-0.283,-0.2772,-0.2807,-0.2678,-0.2724,-0.2645,-0.2698,-0.2697,-0.2696,-0.2696,-0.2696,-0.2293,-0.2309,-0.2349,-0.2413,-0.2487,-0.2583,-0.2702,-0.2798,-0.2866,-0.2922,-0.2836,-0.2833,-0.276,-0.2927,-0.2928,-0.2928,-0.2929,-0.2929,-0.2929,-0.2207,-0.2256,-0.2262,-0.2342,-0.2368,-0.2471,-0.2682,-0.2782,-0.2882,-0.2902,-0.2901,-0.2777,-0.2858,-0.2845,-0.2936,-0.2935,-0.2934,-0.2933,-0.2933,-0.2127,-0.2144,-0.215,-0.217,-0.2251,-0.2306,-0.2551,-0.2741,-0.2875,-0.2902,-0.2795,-0.29,-0.2875,-0.2869,-0.2856,-0.2945,-0.2945,-0.2945,-0.2944,-0.2037,-0.2061,-0.2027,-0.2033,-0.2093,-0.2221,-0.2342,-0.2531,-0.2684,-0.2683,-0.2763,-0.2663,-0.2666,-0.2624,-0.2623,-0.2603,-0.2627,-0.2626,-0.2626,-0.1951,-0.1968,-0.1898,-0.1927,-0.1989,-0.2101,-0.215,-0.2298,-0.2494,-0.2611,-0.2693,-0.2706,-0.2557,-0.2567,-0.2494,-0.2499,-0.2464,0,0]},{"header":{"parameterUnit":"m.s-1","parameterCategory":2,"la1":30.2992,"la2":30.254,"lo1":-89.0895,"lo2":-89.0443,"dy":0.0025,"dx":0.0025,"nx":19,"ny":19,"refTime":"2026-04-02T21:00:00:Z","depth":"0","parameterNumber":3,"parameterNumberName":"V-component_of_CURRENTS"},"data":[0,0,0,-0.0298,-0.0298,-0.0266,-0.0266,-0.013,-0.0129,0,0,0,0,0,0,0,0,0,0,0,-0.0306,-0.0306,-0.0298,-0.0298,-0.0266,-0.0266,-0.0131,-0.0129,0,0,0,0,0,0,0,0,0,0,0,-0.0306,-0.0306,-0.0306,-0.0298,-0.0266,-0.0266,-0.0131,-0.0175,0,0,0,0,0,0,0,0,0,0,-0.0216,-0.0241,-0.0306,-0.0306,-0.0298,-0.0266,-0.0266,-0.0178,-0.0172,-0.0121,0,-0.0125,0,-0.0128,-0.0119,-0.0118,0,0,0,-0.0285,-0.0247,-0.0241,-0.0306,-0.0298,-0.0266,-0.0277,-0.0176,-0.0169,-0.0113,-0.0124,-0.0119,-0.0126,-0.0118,-0.0117,0.0035,0.0036,0,0,-0.0286,-0.0291,-0.0246,-0.0238,-0.0298,-0.0278,-0.0276,-0.0172,-0.0164,-0.0123,-0.0117,-0.0124,-0.0117,-0.0116,0.0035,0.0035,0,0,0,-0.03,-0.0292,-0.0291,-0.0242,-0.0247,-0.0277,-0.0275,-0.0169,-0.017,-0.0115,-0.0122,-0.0116,-0.0114,0.0034,0.0035,-0.0002,0,0,0,-0.0301,-0.0301,-0.0292,-0.0293,-0.025,-0.0221,-0.0274,-0.0177,-0.0166,-0.0123,-0.0116,-0.0113,0.0033,0.0034,-0.0003,-0.0038,0,0,0,-0.0306,-0.0301,-0.0302,-0.0293,-0.0287,-0.0223,-0.0218,-0.0175,-0.017,-0.0118,-0.0112,0.0033,0.0034,-0.0003,-0.0037,0.0025,0,0,0,-0.0305,-0.0353,-0.0302,-0.0356,-0.0287,-0.0287,-0.0219,-0.0212,-0.0179,-0.0115,0.0033,0.0035,-0.0003,-0.0037,0.0024,-0.0014,-0.0014,0,0,-0.0379,-0.0362,-0.0398,-0.0354,-0.0388,-0.029,-0.0261,-0.0194,-0.0129,0.0007,0.001,-0.0003,-0.0037,0.0024,0.0061,0.0059,0,0,0,-0.0432,-0.0459,-0.0461,-0.0464,-0.0424,-0.0337,-0.0258,-0.0176,-0.0058,-0.0103,0.0035,0.0014,0.0054,0.0032,0.003,0.0252,0.0041,0.0041,0.004,-0.0524,-0.052,-0.0567,-0.054,-0.0496,-0.0361,-0.0266,-0.0122,-0.0071,-0.0007,0.0012,0.0067,0.0043,0.0041,0.0271,0.0055,0.0055,0.0055,0.0055,-0.0654,-0.069,-0.0631,-0.068,-0.0546,-0.0479,-0.0239,-0.0157,0.0027,0.0041,0.0083,0.0027,0.0037,0.0283,0.0053,0.0054,0.0054,0.0054,0.0054,-0.073,-0.0745,-0.0766,-0.0778,-0.0695,-0.0539,-0.0402,-0.0216,-0.0027,0.0027,0.0051,0.0051,0.0246,0.0058,0.0058,0.0058,0.0058,0.0058,0.0058,-0.0795,-0.0814,-0.088,-0.0872,-0.0853,-0.0748,-0.0497,-0.0353,-0.0122,0.0008,0.001,0.0299,0.0069,0.0044,0.006,0.006,0.0059,0.0059,0.0059,-0.0908,-0.0907,-0.1016,-0.1037,-0.0995,-0.0943,-0.0716,-0.0437,-0.0241,-0.0129,0.03,0.0037,0.0055,0.0056,0.0033,0.0045,0.0045,0.0045,0.0045,-0.0964,-0.0979,-0.1113,-0.1156,-0.1133,-0.1018,-0.09,-0.0579,-0.0016,0.0288,0.0423,0.0436,0.0427,0.0469,0.0461,0.0449,0.0567,0.0568,0.0569,-0.1026,-0.107,-0.1163,-0.1215,-0.1188,-0.1113,-0.1023,-0.0683,0.0172,0.0618,0.0751,0.0728,0.0775,0.0742,0.0826,0.0797,0.078,0,0]}],[{"header":{"parameterUnit":"m.s-1","parameterCategory":2,"la1":30.2992,"la2":30.254,"lo1":-89.0895,"lo2":-89.0443,"dy":0.0025,"dx":0.0025,"nx":19,"ny":19,"refTime":"2026-04-02T21:00:00:Z","depth":"2","parameterNumber":2,"parameterNumberName":"U-component_of_CURRENTS"},"data":[0,0,0,-0.2168,-0.2171,-0.2298,-0.2298,-0.2331,-0.2332,0,0,0,0,0,0,0,0,0,0,0,-0.2118,-0.2119,-0.2168,-0.2171,-0.2298,-0.2298,-0.2331,-0.2332,0,0,0,0,0,0,0,0,0,0,0,-0.2117,-0.2118,-0.212,-0.2172,-0.2297,-0.2298,-0.2331,-0.2265,0,0,0,0,0,0,0,0,0,0,-0.2157,-0.2122,-0.2118,-0.212,-0.2173,-0.2297,-0.2298,-0.2263,-0.2269,-0.2242,0,-0.2273,0,-0.231,-0.2332,-0.2332,0,0,0,-0.2158,-0.2117,-0.2167,-0.212,-0.2174,-0.2297,-0.2237,-0.2267,-0.2274,-0.2249,-0.2274,-0.2277,-0.231,-0.2332,-0.2332,-0.2372,-0.2372,0,0,-0.2151,-0.2121,-0.2162,-0.2171,-0.222,-0.2233,-0.2241,-0.2272,-0.2272,-0.2275,-0.2278,-0.2311,-0.2332,-0.2332,-0.2371,-0.2372,0,0,0,-0.214,-0.2115,-0.2166,-0.2168,-0.2206,-0.2237,-0.2246,-0.2271,-0.2293,-0.2279,-0.2311,-0.2332,-0.2332,-0.2371,-0.2371,-0.2404,0,0,0,-0.2135,-0.2111,-0.2163,-0.2143,-0.2207,-0.2255,-0.2243,-0.229,-0.2296,-0.2311,-0.2332,-0.2332,-0.237,-0.2371,-0.2402,-0.2401,0,0,0,-0.2109,-0.2107,-0.213,-0.2142,-0.2206,-0.2257,-0.228,-0.2293,-0.2315,-0.2332,-0.2332,-0.237,-0.2371,-0.24,-0.2399,-0.2451,0,0,0,-0.2062,-0.212,-0.2129,-0.2206,-0.2205,-0.2296,-0.2281,-0.234,-0.2361,-0.2332,-0.237,-0.2371,-0.24,-0.2397,-0.2449,-0.2333,-0.2333,0,0,-0.2114,-0.2125,-0.2175,-0.2188,-0.2281,-0.2277,-0.2344,-0.2365,-0.2359,-0.2347,-0.235,-0.2402,-0.2399,-0.2451,-0.2384,-0.2382,0,0,0,-0.2179,-0.2203,-0.2238,-0.2292,-0.235,-0.2368,-0.2394,-0.2399,-0.2414,-0.2379,-0.2411,-0.2408,-0.244,-0.2366,-0.2365,-0.2376,-0.2375,-0.2375,-0.2375,-0.2138,-0.2208,-0.2271,-0.2344,-0.2386,-0.2431,-0.2452,-0.2453,-0.2445,-0.2461,-0.2442,-0.2509,-0.2431,-0.2428,-0.2458,-0.2458,-0.2458,-0.2458,-0.2458,-0.2175,-0.2205,-0.227,-0.2355,-0.2384,-0.2418,-0.2468,-0.248,-0.2516,-0.2484,-0.2515,-0.2411,-0.2429,-0.2461,-0.246,-0.246,-0.246,-0.2459,-0.2459,-0.2119,-0.2144,-0.2209,-0.2293,-0.2328,-0.2381,-0.2422,-0.247,-0.2528,-0.2561,-0.2497,-0.2494,-0.2529,-0.2587,-0.2587,-0.2587,-0.2588,-0.2588,-0.2588,-0.2018,-0.2094,-0.2127,-0.2217,-0.2225,-0.2269,-0.2384,-0.2441,-0.2499,-0.2515,-0.2514,-0.2553,-0.2549,-0.2537,-0.2592,-0.2591,-0.259,-0.259,-0.259,-0.1933,-0.1983,-0.2023,-0.2042,-0.2076,-0.2065,-0.223,-0.2343,-0.2441,-0.2454,-0.2499,-0.25,-0.248,-0.2479,-0.2466,-0.2498,-0.2498,-0.2498,-0.2498,-0.1839,-0.1883,-0.1898,-0.1888,-0.1891,-0.195,-0.1979,-0.209,-0.2248,-0.2262,-0.2272,-0.2198,-0.2206,-0.2168,-0.2174,-0.2153,-0.2105,-0.2104,-0.2103,-0.1746,-0.1793,-0.1739,-0.1787,-0.1775,-0.1809,-0.178,-0.1794,-0.1907,-0.2087,-0.2201,-0.2473,-0.2387,-0.2392,-0.2351,-0.2353,-0.2327,0,0]},{"header":{"parameterUnit":"m.s-1","parameterCategory":2,"la1":30.2992,"la2":30.254,"lo1":-89.0895,"lo2":-89.0443,"dy":0.0025,"dx":0.0025,"nx":19,"ny":19,"refTime":"2026-04-02T21:00:00:Z","depth":"2","parameterNumber":3,"parameterNumberName":"V-component_of_CURRENTS"},"data":[0,0,0,-0.0282,-0.0282,-0.0247,-0.0247,-0.0092,-0.0091,0,0,0,0,0,0,0,0,0,0,0,-0.0291,-0.0291,-0.0282,-0.0282,-0.0247,-0.0247,-0.0093,-0.0091,0,0,0,0,0,0,0,0,0,0,0,-0.0291,-0.0291,-0.0291,-0.0282,-0.0247,-0.0247,-0.0093,-0.0143,0,0,0,0,0,0,0,0,0,0,-0.0188,-0.0219,-0.0291,-0.0291,-0.0282,-0.0248,-0.0247,-0.0146,-0.0139,-0.0081,0,-0.0088,0,-0.0091,-0.0079,-0.0079,0,0,0,-0.0266,-0.0225,-0.0218,-0.0291,-0.0282,-0.0248,-0.0258,-0.0143,-0.0135,-0.0072,-0.0086,-0.0081,-0.0088,-0.0078,-0.0077,0.0083,0.0084,0,0,-0.0268,-0.0275,-0.0224,-0.0214,-0.0285,-0.026,-0.0258,-0.014,-0.0132,-0.0085,-0.0078,-0.0086,-0.0077,-0.0076,0.0083,0.0083,0,0,0,-0.0284,-0.0276,-0.0274,-0.0219,-0.0225,-0.0259,-0.0257,-0.0137,-0.0138,-0.0076,-0.0084,-0.0076,-0.0074,0.0082,0.0083,0.0026,0,0,0,-0.0284,-0.0287,-0.0275,-0.0278,-0.0228,-0.0196,-0.0257,-0.0146,-0.0134,-0.0085,-0.0076,-0.0072,0.0082,0.0083,0.0026,-0.0024,0,0,0,-0.029,-0.0287,-0.0289,-0.0278,-0.0272,-0.0199,-0.0193,-0.0144,-0.0138,-0.0079,-0.0072,0.0081,0.0082,0.0027,-0.0022,0.0005,0,0,0,-0.0291,-0.034,-0.0289,-0.0343,-0.0273,-0.0257,-0.0194,-0.0177,-0.0137,-0.0075,0.0082,0.0083,0.0027,-0.0021,0.0006,-0.0026,-0.0032,0,0,-0.0365,-0.0349,-0.0384,-0.0339,-0.0365,-0.026,-0.0225,-0.0156,-0.0088,0.0053,0.0056,0.0026,-0.0022,0.0005,0.004,0.0033,0,0,0,-0.0417,-0.0444,-0.0443,-0.0442,-0.0391,-0.0303,-0.0213,-0.014,-0.0031,-0.006,0.0066,0.0038,0.0056,0.004,0.0035,0.0088,0.0088,0.0088,0.0088,-0.0507,-0.05,-0.0543,-0.0509,-0.0459,-0.0321,-0.024,-0.0106,-0.0039,0.001,0.0022,0.004,0.0023,0.0019,0.0072,0.0071,0.0071,0.0071,0.0071,-0.0636,-0.0668,-0.0607,-0.0652,-0.0514,-0.0442,-0.0228,-0.0156,-0.0008,0.003,0.0052,0.0017,0.0009,0.0067,0.0068,0.0068,0.0069,0.0069,0.0069,-0.0708,-0.0721,-0.0744,-0.0753,-0.067,-0.0513,-0.0411,-0.0247,-0.0084,-0.0053,-0.0024,-0.0023,-0.0012,-0.0027,-0.0027,-0.0027,-0.0027,-0.0027,-0.0027,-0.0769,-0.079,-0.0859,-0.085,-0.0825,-0.0732,-0.0517,-0.0413,-0.0221,-0.0094,-0.0093,0.0008,0.0011,-0.0014,-0.0029,-0.0029,-0.0028,-0.0028,-0.0028,-0.0872,-0.0887,-0.0998,-0.1016,-0.0966,-0.0919,-0.0734,-0.0522,-0.037,-0.0282,-0.0088,-0.0086,-0.0067,-0.0061,-0.0086,-0.0118,-0.0118,-0.0118,-0.0118,-0.0929,-0.095,-0.1093,-0.1129,-0.11,-0.0989,-0.0911,-0.0657,-0.0356,-0.0181,-0.0179,-0.0174,-0.0169,-0.0155,-0.0147,-0.0173,-0.0228,-0.0228,-0.0228,-0.0987,-0.104,-0.1132,-0.1186,-0.1144,-0.1081,-0.1016,-0.0726,-0.0313,-0.0232,-0.0192,-0.0127,-0.0112,-0.0108,-0.0076,-0.0068,-0.0106,0,0]}],[{"header":{"parameterUnit":"m.s-1","parameterCategory":2,"la1":30.2992,"la2":30.254,"lo1":-89.0895,"lo2":-89.0443,"dy":0.0025,"dx":0.0025,"nx":19,"ny":19,"refTime":"2026-04-02T21:00:00:Z","depth":"4","parameterNumber":2,"parameterNumberName":"U-component_of_CURRENTS"},"data":[0,0,0,-0.085,-0.0851,-0.091,-0.091,-0.0979,-0.098,0,0,0,0,0,0,0,0,0,0,0,-0.0839,-0.0839,-0.085,-0.0851,-0.091,-0.091,-0.0979,-0.098,0,0,0,0,0,0,0,0,0,0,0,-0.0839,-0.0839,-0.084,-0.0851,-0.091,-0.091,-0.0979,-0.0937,0,0,0,0,0,0,0,0,0,0,-0.0881,-0.0865,-0.0839,-0.084,-0.0852,-0.0909,-0.091,-0.0935,-0.094,-0.095,0,-0.0966,0,-0.0969,-0.0984,-0.0984,0,0,0,-0.0855,-0.0861,-0.0881,-0.084,-0.0852,-0.0909,-0.0884,-0.0938,-0.0943,-0.0956,-0.0967,-0.0969,-0.097,-0.0984,-0.0985,-0.122,-0.1222,0,0,-0.0852,-0.0845,-0.0877,-0.0884,-0.0876,-0.0882,-0.0886,-0.0941,-0.0948,-0.0967,-0.0971,-0.0971,-0.0985,-0.0985,-0.1218,-0.122,0,0,0,-0.084,-0.0842,-0.0861,-0.0881,-0.089,-0.0884,-0.0888,-0.0945,-0.0953,-0.0971,-0.0972,-0.0985,-0.0986,-0.1215,-0.1219,-0.1307,0,0,0,-0.0838,-0.0835,-0.0859,-0.0855,-0.0889,-0.0917,-0.0891,-0.0949,-0.0955,-0.0972,-0.0985,-0.0986,-0.1213,-0.1217,-0.13,-0.1299,0,0,0,-0.0834,-0.0834,-0.0845,-0.0855,-0.0878,-0.0916,-0.0927,-0.0951,-0.0956,-0.0984,-0.0986,-0.1212,-0.1216,-0.1293,-0.129,-0.1313,0,0,0,-0.0819,-0.0838,-0.0845,-0.0875,-0.0877,-0.0974,-0.0927,-0.101,-0.105,-0.0985,-0.1213,-0.1218,-0.1291,-0.1284,-0.1308,-0.1074,0,0,0,-0.0832,-0.0839,-0.0859,-0.0867,-0.095,-0.0965,-0.1103,-0.1135,-0.113,-0.1189,-0.1195,-0.1302,-0.1289,-0.1312,-0.1375,0,0,0,0,-0.0856,-0.0869,-0.0897,-0.0947,-0.1019,-0.1147,-0.119,-0.1226,-0.1322,-0.1174,-0.138,-0.137,-0.138,-0.1235,-0.1243,-0.1242,-0.1242,-0.1241,-0.1241,-0.0858,-0.09,-0.0964,-0.1049,-0.1148,-0.1292,-0.138,-0.1456,-0.1433,-0.1523,-0.1502,-0.1658,-0.152,-0.159,-0.1591,-0.1591,-0.1592,-0.1592,-0.1592,-0.0871,-0.0911,-0.1028,-0.1101,-0.1276,-0.1428,-0.1598,-0.1623,-0.1697,-0.1672,-0.1678,-0.1416,-0.1603,-0.1601,-0.1599,-0.1598,-0.1597,-0.1597,-0.1596,-0.0845,-0.0883,-0.0933,-0.1098,-0.1329,-0.1534,-0.1668,-0.175,-0.1774,-0.1797,-0.1619,-0.1708,-0.1627,-0.1806,-0.1806,-0.1806,-0.1806,-0.1807,-0.1807,-0.0798,-0.0861,-0.0925,-0.1118,-0.1275,-0.1481,-0.1698,-0.1718,-0.1784,-0.1685,-0.1815,-0.1728,-0.1721,-0.1641,-0.1809,-0.1809,-0.1809,-0.1808,-0.1808,-0.0754,-0.0774,-0.085,-0.0962,-0.1286,-0.1418,-0.1622,-0.163,-0.1633,-0.1584,-0.1614,-0.1623,-0.1547,-0.1543,-0.1452,-0.1571,-0.1569,-0.1566,0,-0.071,-0.0732,-0.0819,-0.0981,-0.118,-0.1391,-0.137,-0.1428,-0.147,-0.1428,-0.163,-0.1665,-0.1669,-0.1583,-0.1576,-0.1471,0,0,0,-0.0681,-0.0687,-0.0751,-0.0912,-0.1161,-0.1246,-0.1359,-0.1321,-0.1474,-0.141,-0.1504,-0.152,-0.1687,-0.1818,-0.1721,-0.1712,-0.1577,0,0]},{"header":{"parameterUnit":"m.s-1","parameterCategory":2,"la1":30.2992,"la2":30.254,"lo1":-89.0895,"lo2":-89.0443,"dy":0.0025,"dx":0.0025,"nx":19,"ny":19,"refTime":"2026-04-02T21:00:00:Z","depth":"4","parameterNumber":3,"parameterNumberName":"V-component_of_CURRENTS"},"data":[0,0,0,0.0113,0.0114,0.0214,0.0214,0.036,0.0362,0,0,0,0,0,0,0,0,0,0,0,0.008,0.0081,0.0112,0.0115,0.0214,0.0214,0.036,0.0362,0,0,0,0,0,0,0,0,0,0,0,0.008,0.0081,0.0081,0.0115,0.0214,0.0214,0.036,0.0282,0,0,0,0,0,0,0,0,0,0,0.0183,0.0133,0.008,0.0081,0.0116,0.0213,0.0214,0.0278,0.0287,0.0319,0,0.0334,0,0.035,0.0371,0.0372,0,0,0,0.0121,0.0125,0.0167,0.0082,0.0116,0.0213,0.0171,0.0283,0.0293,0.0331,0.0336,0.0342,0.0352,0.0372,0.0373,0.04,0.0399,0,0,0.0115,0.0086,0.016,0.0173,0.0143,0.0167,0.0174,0.0288,0.0291,0.0337,0.0345,0.0354,0.0373,0.0374,0.04,0.0399,0,0,0,0.0095,0.0082,0.0121,0.0167,0.0183,0.017,0.0177,0.0285,0.0303,0.0347,0.0356,0.0374,0.0376,0.0401,0.04,0.0288,0,0,0,0.0092,0.0071,0.0118,0.01,0.0181,0.0229,0.0171,0.0295,0.0308,0.0355,0.0374,0.0377,0.0402,0.0401,0.0293,0.0231,0,0,0,0.0075,0.0068,0.0083,0.0099,0.014,0.0227,0.025,0.0298,0.0314,0.0372,0.0378,0.0403,0.0401,0.0297,0.0239,0.0199,0,0,0,0.0038,0.0045,0.0082,0.0086,0.0139,0.0186,0.025,0.0307,0.0355,0.0375,0.0402,0.04,0.0299,0.0244,0.0203,0.0194,0,0,0,0.0024,0.0042,0.0043,0.0079,0.0095,0.0172,0.0158,0.026,0.033,0.037,0.037,0.0291,0.024,0.02,0.0084,0,0,0,0,0.0022,0.0018,0.0033,0.0047,0.01,0.0094,0.0193,0.0218,0.0255,0.0348,0.0284,0.0255,0.0234,0.0242,0.0391,0.0391,0.0391,0.0392,0.0392,-0.0069,-0.0036,-0.005,-0.0017,-0.0003,0.0054,0.0053,0.0095,0.0194,0.018,0.0159,0.0042,0.0044,0.0162,0.0161,0.0161,0.016,0.016,0.016,-0.0125,-0.014,-0.0135,-0.013,-0.0127,-0.0138,-0.011,-0.0056,-0.0046,0.0038,0.0024,0.0116,0.0148,0.0151,0.0152,0.0154,0.0155,0.0155,0.0156,-0.0184,-0.0189,-0.0183,-0.022,-0.0287,-0.0279,-0.0333,-0.0258,-0.0168,-0.0179,-0.0124,-0.0033,-0.0016,-0.0162,-0.0163,-0.0163,-0.0164,-0.0164,-0.0164,-0.0244,-0.024,-0.0282,-0.0327,-0.0402,-0.0459,-0.0447,-0.0424,-0.0326,-0.0267,-0.0198,-0.0066,-0.0055,-0.0034,-0.0172,-0.0171,-0.017,-0.0169,-0.0168,-0.0304,-0.0288,-0.036,-0.0423,-0.0588,-0.0627,-0.0611,-0.0527,-0.0507,-0.0458,-0.0303,-0.0294,-0.025,-0.0235,-0.0218,-0.0415,-0.0416,-0.0417,0,-0.0348,-0.0344,-0.0457,-0.0594,-0.0729,-0.0742,-0.0715,-0.0657,-0.0534,-0.0519,-0.0513,-0.0343,-0.0333,-0.0285,-0.0272,-0.0255,0,0,0,-0.0399,-0.0403,-0.0519,-0.0631,-0.0813,-0.0756,-0.0703,-0.0668,-0.0542,-0.0521,-0.0433,-0.0429,-0.0315,-0.0194,-0.0105,-0.0092,-0.0053,0,0]}]]